DW6417 Weather Reports


Display with metric or nautical units.
time (UTC)temp
F
wind
direction
speed
MPH
gust
MPH
rain 1hr
in
rain 24hr
in
rain mn
in
humidity
%
barometer
mb
20260904191006 63 242 4.0 9.0 0.00 0.09 0.09 88 1012.7
20260904190712 63 244 4.0 8.0 0.00 0.09 0.09 88 1012.6
20260904190507 63 245 3.0 9.0 0.00 0.09 0.09 88 1012.6
20260904190007 63 246 3.0 6.0 0.00 0.09 0.09 88 1012.5
20260904185712 63 252 2.0 6.0 0.00 0.09 0.09 88 1012.4
20260904185507 63 250 3.0 7.0 0.00 0.09 0.09 88 1012.4
20260904185006 63 247 4.0 7.0 0.00 0.09 0.09 88 1012.3
20260904184712 63 236 3.0 7.0 0.00 0.09 0.09 88 1012.3
20260904184007 63 252 4.0 7.0 0.00 0.09 0.09 88 1012.3
20260904183507 63 248 4.0 8.0 0.00 0.09 0.09 88 1012.0
20260904183006 63 245 4.0 8.0 0.00 0.09 0.09 87 1012.1
20260904182713 63 243 4.0 9.0 0.00 0.09 0.09 87 1011.9
20260904182007 64 246 4.0 10.0 0.00 0.09 0.09 87 1011.8
20260904181712 64 242 3.0 6.0 0.00 0.09 0.09 87 1011.8
20260904181507 64 246 4.0 6.0 0.00 0.09 0.09 87 1011.8
20260904181007 64 247 4.0 6.0 0.00 0.09 0.09 87 1011.6
20260904180713 64 243 4.0 6.0 0.00 0.09 0.09 87 1011.6
20260904180507 64 248 4.0 6.0 0.00 0.09 0.09 87 1011.6
20260904175507 64 251 4.0 9.0 0.00 0.09 0.09 87 1011.5
20260904174713 64 261 4.0 10.0 0.00 0.09 0.09 87 1011.5
20260904174507 64 252 4.0 10.0 0.00 0.09 0.09 87 1011.4
20260904174007 64 253 4.0 10.0 0.00 0.09 0.09 87 1011.1
20260904173713 64 256 4.0 7.0 0.00 0.09 0.09 87 1011.3
20260904173507 64 263 3.0 6.0 0.00 0.09 0.09 87 1011.2
20260904173007 64 262 3.0 7.0 0.00 0.09 0.09 87 1011.1
20260904172713 64 301 3.0 7.0 0.00 0.09 0.09 87 1011.2
20260904172507 64 251 3.0 7.0 0.00 0.09 0.09 87 1011.1
20260904172007 64 247 4.0 8.0 0.00 0.09 0.09 87 1011.1
20260904171713 64 250 4.0 8.0 0.00 0.09 0.09 87 1011.0
20260904171507 64 248 4.0 8.0 0.00 0.09 0.09 87 1010.9
20260904170713 64 267 5.0 9.0 0.00 0.09 0.09 87 1011.0
20260904170508 64 252 4.0 9.0 0.00 0.09 0.09 87 1011.0
20260904170008 64 249 4.0 9.0 0.00 0.09 0.09 87 1011.0
20260904165713 64 258 5.0 9.0 0.00 0.09 0.09 87 1010.9
20260904165507 64 249 5.0 9.0 0.00 0.09 0.09 87 1010.9
20260904165007 64 251 4.0 9.0 0.01 0.09 0.09 87 1011.0
20260904164713 64 259 4.0 8.0 0.02 0.09 0.09 87 1011.0
20260904164507 64 259 4.0 8.0 0.02 0.09 0.09 87 1011.0
20260904164007 64 261 3.0 7.0 0.02 0.09 0.09 87 1011.0
20260904163713 64 257 3.0 9.0 0.02 0.09 0.09 87 1011.0
20260904163508 64 261 3.0 9.0 0.02 0.09 0.09 87 1010.9
20260904162713 64 269 3.0 8.0 0.02 0.09 0.09 87 1011.0
20260904162509 64 275 3.0 8.0 0.02 0.09 0.09 87 1010.9
20260904162007 64 270 3.0 8.0 0.02 0.09 0.09 87 1010.9
20260904161713 64 280 3.0 9.0 0.02 0.09 0.09 87 1010.9
20260904161507 64 265 4.0 9.0 0.02 0.09 0.09 87 1010.9
20260904161008 64 274 4.0 11.0 0.02 0.09 0.09 87 1010.8
20260904160713 64 263 5.0 11.0 0.02 0.09 0.09 87 1010.8
20260904160507 64 264 5.0 11.0 0.02 0.09 0.09 87 1010.8
20260904160007 64 264 4.0 10.0 0.02 0.09 0.09 86 1010.7
20260904155713 64 246 3.0 10.0 0.02 0.09 0.09 86 1010.6
20260904155509 64 263 4.0 10.0 0.02 0.09 0.09 86 1010.6
20260904155007 64 246 4.0 8.0 0.02 0.09 0.09 86 1011.0
20260904154713 64 250 4.0 11.0 0.02 0.08 0.08 85 1011.0
20260904154007 64 265 4.0 11.0 0.02 0.08 0.08 86 1011.0
20260904153713 64 242 4.0 10.0 0.02 0.08 0.08 86 1010.9
20260904153508 64 270 4.0 10.0 0.02 0.08 0.08 86 1010.8
20260904153007 64 274 4.0 10.0 0.02 0.08 0.08 86 1010.6
20260904152713 65 248 5.0 10.0 0.02 0.08 0.08 85 1010.9
20260904152507 65 280 5.0 10.0 0.02 0.08 0.08 85 1010.8
20260904152007 65 289 6.0 15.0 0.02 0.08 0.08 86 1010.9
20260904151713 65 302 6.0 15.0 0.02 0.08 0.08 85 1010.8
20260904151508 65 290 6.0 15.0 0.02 0.08 0.08 85 1010.7
20260904150713 65 298 9.0 22.0 0.04 0.08 0.08 86 1010.8
20260904150508 65 284 7.0 22.0 0.04 0.08 0.08 86 1010.7
20260904150008 66 289 6.0 16.0 0.04 0.08 0.08 87 1010.8
20260904145508 66 294 5.0 15.0 0.03 0.07 0.07 87 1010.7
20260904145007 66 295 4.0 10.0 0.02 0.06 0.06 87 1010.5
20260904144715 66 296 5.0 13.0 0.03 0.06 0.06 87 1010.6
20260904144508 66 296 5.0 13.0 0.02 0.06 0.06 87 1010.5
20260904144008 66 295 7.0 16.0 0.03 0.06 0.06 86 1010.5
20260904143508 66 297 8.0 16.0 0.03 0.06 0.06 85 1010.5
20260904143008 67 297 8.0 16.0 0.04 0.06 0.06 85 1010.5
20260904142508 67 297 9.0 18.0 0.04 0.06 0.06 85 1010.3
20260904142009 68 300 10.0 21.0 0.04 0.06 0.06 85 1010.1
20260904141714 69 301 9.0 21.0 0.04 0.06 0.06 85 1010.0
20260904141509 69 306 9.0 21.0 0.03 0.06 0.06 85 1010.0
20260904141008 70 282 9.0 15.0 0.02 0.05 0.05 85 1009.8
20260904140714 70 242 9.0 9.0 0.02 0.04 0.04 85 1009.5
20260904140509 70 244 11.0 18.0 0.02 0.04 0.04 85 1009.7
20260904135714 70 240 10.0 20.0 0.02 0.04 0.04 85 1009.3
20260904135508 70 259 7.0 19.0 0.02 0.04 0.04 85 1009.3
20260904135008 71 272 7.0 18.0 0.02 0.04 0.04 85 1009.4
20260904134714 71 232 7.0 18.0 0.02 0.03 0.03 83 1009.5
20260904134508 71 270 7.0 18.0 0.02 0.03 0.03 83 1009.4
20260904134009 71 264 8.0 22.0 0.02 0.03 0.03 82 1009.2
20260904133714 72 257 10.0 22.0 0.02 0.02 0.02 80 1009.0
20260904133008 72 270 8.0 17.0 0.02 0.02 0.02 81 1009.0
20260904132714 72 300 10.0 17.0 0.02 0.02 0.02 79 1009.1
20260904132508 72 268 9.0 17.0 0.02 0.02 0.02 79 1009.0
20260904132008 72 263 8.0 18.0 0.02 0.02 0.02 79 1009.1
20260904131715 72 274 8.0 16.0 0.02 0.02 0.02 79 1009.1
20260904131508 72 265 8.0 18.0 0.02 0.02 0.02 79 1009.1
20260904131008 72 254 8.0 16.0 0.02 0.02 0.02 81 1009.1
20260904130714 71 251 8.0 16.0 0.02 0.02 0.02 82 1009.2
20260904130508 71 246 8.0 16.0 0.02 0.02 0.02 82 1009.1
20260904130008 71 251 7.0 16.0 0.02 0.02 0.02 82 1009.2
20260904125714 71 258 9.0 14.0 0.02 0.02 0.02 81 1009.2
20260904125508 72 252 7.0 14.0 0.02 0.02 0.02 81 1009.2
20260904125008 72 272 8.0 14.0 0.02 0.02 0.02 81 1009.1
20260904124508 72 271 13.0 26.0 0.02 0.02 0.02 80 1009.1
20260904124008 73 252 13.0 26.0 0.01 0.01 0.01 76 1009.2
20260904123715 74 256 12.0 26.0 0.00 0.00 0.00 75 1009.3
20260904123508 74 248 10.0 20.0 0.00 0.00 0.00 75 1009.2
20260904123008 74 250 9.0 20.0 0.00 0.00 0.00 75 1009.0
20260904122714 74 258 8.0 20.0 0.00 0.00 0.00 75 1009.2
20260904122508 74 251 11.0 20.0 0.00 0.00 0.00 75 1009.1
20260904122009 74 251 13.0 22.0 0.00 0.00 0.00 76 1009.1
20260904121714 74 238 11.0 25.0 0.00 0.00 0.00 77 1009.2
20260904121008 73 250 10.0 25.0 0.00 0.00 0.00 77 1009.2
20260904120508 73 250 9.0 21.0 0.00 0.00 0.00 77 1009.3
20260904120008 73 251 10.0 20.0 0.00 0.00 0.00 78 1009.2
20260904115714 72 259 9.0 17.0 0.00 0.00 0.00 79 1009.2
20260904115508 72 251 11.0 17.0 0.00 0.00 0.00 80 1009.2
20260904115009 73 253 9.0 16.0 0.00 0.00 0.00 79 1009.2
20260904114714 73 249 8.0 13.0 0.00 0.00 0.00 78 1009.2
20260904114009 73 255 8.0 17.0 0.00 0.00 0.00 77 1009.2
20260904113715 74 260 10.0 17.0 0.00 0.00 0.00 75 1009.3
20260904113508 74 252 9.0 17.0 0.00 0.00 0.00 75 1009.3
20260904113009 74 250 10.0 18.0 0.00 0.00 0.00 73 1009.3
20260904112716 74 235 7.0 20.0 0.00 0.00 0.00 73 1009.2
20260904112508 74 250 9.0 18.0 0.00 0.00 0.00 72 1009.2
20260904112009 74 252 10.0 22.0 0.00 0.00 0.00 73 1009.2
20260904105715 75 256 9.0 23.0 0.00 0.00 0.00 70 1009.3
20260904104715 75 237 13.0 24.0 0.00 0.00 0.00 70 1009.2
20260904103716 74 249 11.0 19.0 0.00 0.00 0.00 72 1009.3
20260904102710 74 242 12.0 21.0 0.00 0.00 0.00 71 1009.5
20260904101710 74 294 10.0 20.0 0.00 0.00 0.00 70 1009.5
20260904100710 75 204 12.0 25.0 0.00 0.00 0.00 69 1009.3
20260904095710 75 251 9.0 18.0 0.00 0.00 0.00 71 1009.4
20260904094710 74 258 10.0 20.0 0.00 0.00 0.00 73 1009.3
20260904090710 73 245 9.0 21.0 0.00 0.00 0.00 78 1009.7
20260904085710 72 225 10.0 18.0 0.00 0.00 0.00 78 1009.9
20260904084710 72 244 9.0 23.0 0.00 0.00 0.00 78 1010.0
20260904083711 72 226 7.0 17.0 0.00 0.00 0.00 78 1010.0
20260904082711 72 270 11.0 26.0 0.00 0.00 0.00 77 1010.3
20260904081711 72 246 11.0 19.0 0.00 0.00 0.00 77 1010.2
20260904075711 72 240 10.0 21.0 0.00 0.01 0.00 78 1010.2
20260904074711 71 247 9.0 15.0 0.00 0.01 0.00 79 1010.1
20260904073711 71 249 8.0 18.0 0.00 0.01 0.00 79 1010.0
20260904072711 71 215 6.0 16.0 0.00 0.01 0.00 79 1010.3
20260904071711 71 219 8.0 18.0 0.00 0.01 0.00 80 1010.6
20260904070711 71 262 6.0 15.0 0.00 0.01 0.00 80 1010.5
20260904065711 70 270 6.0 12.0 0.00 0.05 0.00 81 1010.4
20260904064711 69 215 6.0 11.0 0.00 0.05 0.00 82 1010.6
20260904063711 69 242 6.0 12.0 0.00 0.05 0.00 83 1010.6
20260904062711 69 253 4.0 11.0 0.00 0.05 0.00 83 1010.8
20260904061711 69 242 6.0 14.0 0.00 0.05 0.00 83 1010.9
20260904060711 69 215 6.0 16.0 0.00 0.05 0.00 83 1010.9
20260904054711 69 240 8.0 15.0 0.00 0.05 0.00 83 1011.4
20260904052711 68 262 5.0 16.0 0.00 0.05 0.00 84 1011.3
20260904051711 68 255 5.0 14.0 0.00 0.05 0.00 84 1011.4
20260904050711 68 257 7.0 17.0 0.00 0.05 0.00 84 1011.6
20260904045711 68 265 4.0 12.0 0.00 0.05 0.00 85 1011.6
20260904044712 68 246 5.0 13.0 0.00 0.05 0.00 85 1011.5
20260904043713 68 257 5.0 12.0 0.00 0.05 0.00 85 1011.6
20260904042712 68 236 4.0 8.0 0.00 0.05 0.00 85 1011.7
20260904041712 68 237 3.0 11.0 0.00 0.05 0.00 85 1011.8
20260904040712 68 200 5.0 9.0 0.00 0.05 0.00 85 1011.7
20260904035712 68 264 4.0 10.0 0.00 0.05 0.00 85 1012.0
20260904034712 68 240 5.0 11.0 0.00 0.05 0.00 85 1012.3
20260904033712 68 255 5.0 14.0 0.00 0.05 0.00 85 1012.2
20260904032712 68 247 5.0 12.0 0.00 0.05 0.00 85 1012.2
20260904025712 68 207 4.0 9.0 0.00 0.05 0.00 85 1012.3
20260904024712 68 226 4.0 10.0 0.00 0.05 0.00 85 1012.5
20260904023712 68 186 5.0 10.0 0.00 0.05 0.00 85 1012.6
20260904022712 68 234 5.0 11.0 0.00 0.05 0.00 85 1012.7
20260904021712 68 249 4.0 12.0 0.00 0.05 0.00 85 1013.0
20260904020712 68 229 6.0 12.0 0.00 0.05 0.00 85 1013.1
20260904015712 68 208 4.0 11.0 0.00 0.05 0.00 85 1013.3
20260904014712 69 230 5.0 12.0 0.00 0.05 0.00 85 1013.4
20260904013712 69 242 5.0 13.0 0.00 0.05 0.00 85 1013.6
20260904012713 69 251 6.0 14.0 0.00 0.05 0.00 85 1013.6
20260904010712 69 282 5.0 12.0 0.00 0.05 0.00 85 1013.7
20260904005712 69 210 4.0 14.0 0.00 0.05 0.00 85 1013.7
20260904002713 69 253 5.0 10.0 0.00 0.05 0.00 85 1013.9
20260904001713 69 201 5.0 11.0 0.00 0.05 0.00 85 1013.9
20260904000713 69 253 4.0 10.0 0.00 0.05 0.00 85 1014.1
20260903235713 69 188 5.0 11.0 0.00 0.05 0.00 86 1014.3
20260903234713 68 248 5.0 11.0 0.00 0.05 0.00 86 1014.3
20260903233713 68 232 5.0 11.0 0.00 0.05 0.00 86 1014.3
20260903232713 68 255 5.0 12.0 0.00 0.05 0.00 86 1014.3
20260903231713 68 270 5.0 9.0 0.00 0.05 0.00 86 1014.5
20260903230713 68 230 4.0 9.0 0.00 0.05 0.00 86 1014.5
20260903225713 68 240 3.0 10.0 0.00 0.05 0.00 86 1014.6
20260903224713 68 242 3.0 6.0 0.00 0.05 0.00 86 1014.6
20260903223713 68 232 2.0 5.0 0.00 0.05 0.00 86 1014.8
20260903222713 68 207 3.0 9.0 0.00 0.05 0.00 86 1014.9
20260903221713 68 186 2.0 5.0 0.00 0.05 0.00 86 1014.9
20260903220713 68 246 3.0 7.0 0.00 0.05 0.00 86 1014.9
20260903215714 68 247 3.0 8.0 0.00 0.05 0.05 86 1015.0
20260903214713 68 226 3.0 7.0 0.00 0.05 0.05 86 1015.2
20260903213714 69 227 3.0 8.0 0.00 0.05 0.05 85 1015.5
20260903211713 69 244 4.0 11.0 0.00 0.05 0.05 84 1015.5
20260903210713 69 271 5.0 14.0 0.00 0.05 0.05 83 1015.5
20260903205714 69 211 3.0 13.0 0.00 0.05 0.05 82 1015.4
20260903203714 70 236 6.0 16.0 0.00 0.05 0.05 82 1015.6
20260903202714 70 208 5.0 11.0 0.00 0.05 0.05 82 1015.6
20260903201714 69 222 5.0 11.0 0.00 0.05 0.05 82 1015.6
20260903200714 69 193 2.0 6.0 0.00 0.05 0.05 82 1015.6
20260903195714 69 237 2.0 5.0 0.00 0.05 0.05 81 1015.5
20260903194714 69 240 1.0 4.0 0.00 0.05 0.05 81 1015.6
20260903193714 69 242 1.0 3.0 0.00 0.05 0.05 81 1015.6
20260903191714 69 242 3.0 7.0 0.00 0.05 0.05 80 1015.6